Tracking 28790 objects as of 19-Apr-2024
HD Live streaming from Space Station
objects crossing your sky now

THORAD DELTA 1 DEB

Track THORAD DELTA 1 DEB now!
10-day predictions


NORAD ID: 42619
Int'l Code: 1974-089GL
Perigee: 972.8 km
Apogee: 1,251.1 km
Inclination: 102.1 °
Period: 107.4 minutes
Semi major axis: 7482 km
RCS: Unknown
Launch date: November 15, 1974
Source: United States (US)
Launch site: AIR FORCE WESTERN TEST RANGE (AFWTR)

Note: This is SATELLITE DEBRIS
Your satellite tracking list
Your tracking list is empty




NASA's NSSDC Master Catalog

Two Line Element Set (TLE):
1 42619U 74089GL  24110.01510346  .00002989  00000-0  49643-2 0  9994
2 42619 102.0571 305.9853 0185942   8.6050 145.1660 13.41203082279589
Source of the keplerian elements: AFSPC